Voltar ao catálogo

SL-8 R/B

AtivoLEO
NORAD 17146·ROCKET BODY·🇷🇺 Russia

Lançado Nov 21, 1986 de Plesetsk Cosmodrome

Loading…

Próximas Passagens (próximas 24 horas)

TLE

AtualizadoSource: Space-Track

Época: Sep 14, 2026, 21:25 UTC

1 17146U 86092J   26257.89282534  .00000052  00000-0  60263-3 0  9994
2 17146  74.0146  46.8088 0124416   3.5014 164.5196 12.23672463778682

Acompanhe SL-8 R/B em tempo real com AllMySat

Download on the App Store